Regional Weather Roundup
Issued by NWS Newport/Morehead, NC

Current Version | Previous Version | Graphics & Text | Print | Product List | Glossary On
Versions: 1 2 3 4 5 6 7 8 9 10 11 12 13 14 15 16 17 18 19 20 21 22 23 24 25 26 27 28 29 30 31 32 33 34 35 36 37 38 39 40 41 42 43 44 45 46 47 48 49 50
000 ASUS42 KMHX 241313 RWRMHX WEATHER ROUNDUP FOR EASTERN NORTH CAROLINA NATIONAL WEATHER SERVICE NEWPORT/MOREHEAD CITY NC 900 AM EDT SAT JUN 24 2017 NOTE: "FAIR" INDICATES FEW OR NO CLOUDS BELOW 12,000 FEET WITH NO SIGNIFICANT WEATHER AND/OR OBSTRUCTIONS TO VISIBILITY NCZ015>017-031-032-045>047-102-103-241400- NORTH COAST CITY SKY/WX TMP DP RH WIND PRES REMARKS EDENTON PTSUNNY 84 75 73 SW16G23 29.89R ELIZABETH CITY PTSUNNY 84 75 74 SW20G35 29.87R KITTY HAWK PTSUNNY 82 73 72 SW12G25 29.86R MANTEO CLOUDY 82 73 76 W22G33 29.88R $$ NCZ045>047-081-094-103-104-241400- CENTRAL COAST CITY SKY/WX TMP DP RH WIND PRES REMARKS FRISCO CLOUDY 81 75 82 SW18G28 29.93R $$ NCZ095-097-098-100-101-241400- SOUTHERN COAST CITY SKY/WX TMP DP RH WIND PRES REMARKS BEAUFORT PTSUNNY 83 78 85 SW22G30 29.94S CEDAR ISLAND NOT AVBL JACKSONVILLE MOSUNNY 84 76 76 SW14 29.93S PINEY ISLAND MOSUNNY N/A N/A N/A SW21G28 29.93R WILMINGTON MOSUNNY 84 75 74 SW16G26 29.96R $$ NCZ011>013-027>030-043-044-078>080-089-090>093-098-241400- COASTAL PLAIN CITY SKY/WX TMP DP RH WIND PRES REMARKS AHOSKIE N/A 80 72 78 NW3 29.89R CLINTON MOSUNNY 81 76 84 SW12G17 29.95R ELIZABETHTOWN NOT AVBL GOLDSBORO NOT AVBL GREENVILLE PTSUNNY 81 73 78 W12G20 29.93R HAVELOCK PTSUNNY 84 74 71 W20G25 29.94R KENANSVILLE PTSUNNY 82 73 74 SW14G20 29.94R KINSTON PTSUNNY 82 73 74 SW10G17 29.93R NEW BERN MOSUNNY 83 75 77 SW17G23 29.94R RICHLANDS PTSUNNY 84 75 74 SW12 29.95R ROCKY MOUNT MOSUNNY 82 75 79 W14G21 29.92R WASHINGTON PTSUNNY N/A N/A N/A SW17G26 29.91R WHITEVILLE SUNNY 82 74 77 SW10 29.97R $$ AMZ130-135-150-152-154-156-158-170-250-252-270-ANZ085-086-088-633-658-670-241400- MARINE OBSERVATIONS STATION/POSITION TIME TEMP WIND PRES WAVE SWELL AIR SEA DIR/SP/G HT/PER HT/PER (UTC) (F) (DEG/KT/KT) (MB) (FT/S) (FT/S) CHESAPEAKE LIGHT NOT AVBL 64 E VA BEACH 1250 75 71 230/ 19/ 23 1010.3 8/ 7 DUCK 1248 81 62 240/ 23/ 28 1010.9 2 E DUCK NOT AVBL OREGON INLET 1242 81 80 220/ 22/ 26 1011.7 13E OREGON INLT 1248 69 N/A 6/ 6 2/ 7 HATTERAS CG 1248 80 78 230/ 16/ 22 1013.2 DIAMOND BUOY 1250 81 80 230/ 25/ 29 1013.2 9/ 7 CAPE LOOKOUT 1300 81 230/ 15/ 21 1013.7 BEAUFORT LAB 1248 81 77 230/ 9/ 16 1013.2 30 SE NEW RVR IN 1208 80 80 240/ 23/ 29 1014.4 30 SE NEW RVR IN 1243 80 N/A 8/ 7 27 SE WRIGHTSVLE 1208 79 79 220/ 21/ 29 1014.0 5 SE WRIGHTSVLE 1208 80 78 230/ 17/ 25 1014.0 225 S CAPE HAT 1250 81 80 200/ 14/ 16 1018.6 4/ 5 2/ 9 41 SE CHARLESTON 1250 81 81 220/ 19/ 23 1016.1 5/ 6 2/ 9 $$

USA.gov is the U.S. government's official web portal to all federal, state and local government web resources and services.